| time (UTC) | temp C | wind direction | speed KPH | gust KPH | rain 1hr cm | rain 24hr cm | rain mn cm | humidity % | barometer mb |
| 20260507033046 | 4 | 325 | 1.6 | 0.0 | 0.00 | 0.00 | 0.81 | 37 | 1005.5 |
| 20260507032605 | 4 | 322 | 0.0 | 0.0 | 0.00 | 0.00 | 0.81 | 37 | 1005.6 |
| 20260507032005 | 4 | 322 | 1.6 | 0.0 | 0.00 | 0.00 | 0.81 | 37 | 1005.5 |
| 20260507031555 | 4 | 317 | 1.6 | 0.0 | 0.00 | 0.00 | 0.81 | 37 | 1005.4 |
| 20260507030546 | 4 | 327 | 0.0 | 0.0 | 0.00 | 0.00 | 0.81 | 38 | 1005.6 |
| 20260507030106 | 4 | 327 | 0.0 | 0.0 | 0.00 | 0.00 | 0.81 | 38 | 1005.6 |
| 20260507025504 | 4 | 327 | 0.0 | 0.0 | 0.00 | 0.00 | 0.81 | 38 | 1005.6 |
| 20260507025051 | 4 | 328 | 1.6 | 0.0 | 0.00 | 0.00 | 0.81 | 38 | 1005.6 |
| 20260507024609 | 4 | 328 | 1.6 | 0.0 | 0.00 | 0.00 | 0.81 | 38 | 1005.6 |
| 20260507024008 | 4 | 319 | 1.6 | 0.0 | 0.00 | 0.00 | 0.81 | 38 | 1005.6 |
| 20260507023557 | 4 | 315 | 0.0 | 0.0 | 0.00 | 0.00 | 0.81 | 38 | 1005.6 |
| 20260507022513 | 4 | 308 | 0.0 | 0.0 | 0.00 | 0.00 | 0.81 | 39 | 1005.8 |
| 20260507022059 | 4 | 306 | 0.0 | 0.0 | 0.00 | 0.00 | 0.81 | 39 | 1005.7 |
| 20260507021619 | 4 | 306 | 0.0 | 0.0 | 0.00 | 0.00 | 0.81 | 39 | 1005.7 |
| 20260507021047 | 4 | 306 | 0.0 | 0.0 | 0.00 | 0.00 | 0.81 | 39 | 1005.6 |
| 20260507020009 | 4 | 306 | 0.0 | 0.0 | 0.00 | 0.00 | 0.81 | 40 | 1005.5 |
| 20260507015602 | 4 | 306 | 0.0 | 0.0 | 0.00 | 0.00 | 0.81 | 40 | 1005.5 |
| 20260507014553 | 5 | 306 | 0.0 | 0.0 | 0.00 | 0.00 | 0.81 | 40 | 1005.4 |
| 20260507014109 | 5 | 306 | 0.0 | 0.0 | 0.00 | 0.00 | 0.81 | 40 | 1005.5 |
| 20260507013503 | 5 | 306 | 0.0 | 0.0 | 0.00 | 0.00 | 0.81 | 40 | 1005.5 |
| 20260507013057 | 5 | 306 | 0.0 | 0.0 | 0.00 | 0.00 | 0.81 | 40 | 1005.6 |
| 20260507012043 | 5 | 306 | 0.0 | 0.0 | 0.00 | 0.00 | 0.81 | 41 | 1005.5 |
| 20260507011555 | 5 | 305 | 0.0 | 0.0 | 0.00 | 0.00 | 0.81 | 41 | 1005.6 |
| 20260507010513 | 5 | 304 | 0.0 | 0.0 | 0.00 | 0.00 | 0.81 | 42 | 1005.8 |
| 20260507010104 | 5 | 304 | 0.0 | 0.0 | 0.00 | 0.00 | 0.81 | 43 | 1005.8 |
| 20260507005048 | 5 | 304 | 0.0 | 0.0 | 0.00 | 0.00 | 0.81 | 45 | 1005.7 |
| 20260507004609 | 5 | 304 | 0.0 | 0.0 | 0.00 | 0.00 | 0.81 | 45 | 1005.7 |
| 20260507004007 | 5 | 304 | 0.0 | 0.0 | 0.00 | 0.00 | 0.81 | 46 | 1005.7 |
| 20260507003600 | 5 | 304 | 0.0 | 0.0 | 0.00 | 0.00 | 0.81 | 46 | 1005.7 |
| 20260507002513 | 5 | 304 | 0.0 | 0.0 | 0.00 | 0.00 | 0.81 | 46 | 1005.7 |
| 20260507002057 | 5 | 304 | 0.0 | 0.0 | 0.00 | 0.00 | 0.81 | 47 | 1005.6 |
| 20260507001015 | 6 | 304 | 0.0 | 0.0 | 0.00 | 0.00 | 0.81 | 47 | 1005.7 |
| 20260507000606 | 6 | 304 | 0.0 | 0.0 | 0.00 | 0.00 | 0.81 | 47 | 1005.7 |
| 20260507000003 | 6 | 304 | 0.0 | 0.0 | 0.00 | 0.00 | 0.81 | 47 | 1005.7 |
| 20260506235557 | 6 | 304 | 0.0 | 0.0 | 0.00 | 0.00 | 0.81 | 48 | 1005.7 |
| 20260506235114 | 6 | 304 | 0.0 | 0.0 | 0.00 | 0.00 | 0.81 | 48 | 1005.7 |
| 20260506234548 | 6 | 304 | 0.0 | 0.0 | 0.00 | 0.00 | 0.81 | 48 | 1005.8 |
| 20260506234105 | 6 | 304 | 0.0 | 0.0 | 0.00 | 0.00 | 0.81 | 48 | 1005.7 |
| 20260506233503 | 6 | 304 | 0.0 | 0.0 | 0.00 | 0.00 | 0.81 | 49 | 1005.7 |
| 20260506233108 | 6 | 304 | 0.0 | 0.0 | 0.00 | 0.00 | 0.81 | 49 | 1005.8 |
| 20260506232605 | 6 | 304 | 0.0 | 0.0 | 0.00 | 0.00 | 0.81 | 49 | 1005.7 |
| 20260506231554 | 6 | 304 | 0.0 | 0.0 | 0.00 | 0.00 | 0.81 | 51 | 1005.4 |
| 20260506230507 | 6 | 304 | 0.0 | 0.0 | 0.00 | 0.00 | 0.81 | 51 | 1005.5 |
| 20260506230054 | 6 | 304 | 0.0 | 0.0 | 0.00 | 0.00 | 0.81 | 51 | 1005.4 |
| 20260506225041 | 6 | 304 | 0.0 | 0.0 | 0.00 | 0.00 | 0.81 | 50 | 1005.6 |
| 20260506224601 | 6 | 304 | 0.0 | 0.0 | 0.00 | 0.00 | 0.81 | 50 | 1005.5 |
| 20260506223549 | 6 | 304 | 1.6 | 0.0 | 0.00 | 0.00 | 0.81 | 49 | 1005.7 |
| 20260506223111 | 6 | 304 | 1.6 | 0.0 | 0.00 | 0.00 | 0.81 | 49 | 1005.8 |
| 20260506222513 | 6 | 304 | 1.6 | 0.0 | 0.00 | 0.00 | 0.81 | 49 | 1005.7 |
| 20260506222111 | 6 | 304 | 1.6 | 0.0 | 0.00 | 0.00 | 0.81 | 49 | 1005.6 |
| 20260506221539 | 6 | 304 | 1.6 | 0.0 | 0.00 | 0.00 | 0.81 | 49 | 1005.6 |
| 20260506221101 | 6 | 304 | 1.6 | 0.0 | 0.00 | 0.00 | 0.81 | 49 | 1005.5 |
| 20260506220502 | 6 | 304 | 1.6 | 0.0 | 0.00 | 0.00 | 0.81 | 49 | 1005.7 |
| 20260506220053 | 6 | 304 | 1.6 | 0.0 | 0.00 | 0.00 | 0.81 | 49 | 1005.8 |
| 20260506215614 | 6 | 304 | 0.0 | 0.0 | 0.00 | 0.00 | 0.81 | 49 | 1005.9 |
| 20260506215038 | 6 | 304 | 0.0 | 0.0 | 0.00 | 0.00 | 0.81 | 49 | 1005.7 |
| 20260506214559 | 6 | 304 | 1.6 | 0.0 | 0.00 | 0.00 | 0.81 | 49 | 1005.8 |
| 20260506213537 | 6 | 302 | 0.0 | 0.0 | 0.00 | 0.00 | 0.81 | 51 | 1005.8 |
| 20260506213112 | 6 | 302 | 1.6 | 0.0 | 0.00 | 0.00 | 0.81 | 51 | 1005.8 |
| 20260506212015 | 6 | 301 | 1.6 | 0.0 | 0.00 | 0.00 | 0.81 | 50 | 1005.8 |
| 20260506211604 | 6 | 300 | 0.0 | 0.0 | 0.00 | 0.00 | 0.81 | 51 | 1005.9 |
| 20260506211003 | 6 | 301 | 0.0 | 0.0 | 0.00 | 0.00 | 0.81 | 51 | 1005.8 |
| 20260506210551 | 6 | 300 | 1.6 | 0.0 | 0.00 | 0.00 | 0.81 | 51 | 1005.7 |
| 20260506210111 | 6 | 301 | 1.6 | 0.0 | 0.00 | 0.00 | 0.81 | 51 | 1005.8 |
| 20260506205509 | 6 | 300 | 0.0 | 0.0 | 0.00 | 0.00 | 0.81 | 51 | 1005.7 |
| 20260506205057 | 6 | 300 | 0.0 | 0.0 | 0.00 | 0.00 | 0.81 | 51 | 1005.7 |
| 20260506204018 | 6 | 300 | 1.6 | 0.0 | 0.00 | 0.00 | 0.81 | 51 | 1005.8 |
| 20260506203604 | 6 | 300 | 1.6 | 0.0 | 0.00 | 0.00 | 0.81 | 51 | 1006.0 |
| 20260506203005 | 6 | 300 | 1.6 | 0.0 | 0.00 | 0.00 | 0.79 | 52 | 1006.1 |
| 20260506202555 | 7 | 300 | 1.6 | 0.0 | 0.00 | 0.00 | 0.79 | 51 | 1006.1 |
| 20260506202111 | 7 | 296 | 1.6 | 0.0 | 0.00 | 0.00 | 0.79 | 51 | 1006.1 |
| 20260506201511 | 6 | 296 | 1.6 | 0.0 | 0.00 | 0.00 | 0.79 | 51 | 1006.1 |
| 20260506201052 | 6 | 296 | 1.6 | 0.0 | 0.00 | 0.00 | 0.79 | 50 | 1006.1 |
| 20260506200618 | 6 | 296 | 1.6 | 0.0 | 0.00 | 0.00 | 0.79 | 51 | 1006.0 |
| 20260506200042 | 6 | 284 | 1.6 | 0.0 | 0.00 | 0.00 | 0.79 | 51 | 1006.0 |
| 20260506195605 | 6 | 290 | 1.6 | 0.0 | 0.00 | 0.00 | 0.79 | 51 | 1006.0 |
| 20260506194548 | 6 | 140 | 0.0 | 0.0 | 0.00 | 0.00 | 0.79 | 50 | 1006.1 |
| 20260506193504 | 6 | 140 | 0.0 | 0.0 | 0.00 | 0.00 | 0.79 | 47 | 1006.1 |
| 20260506193054 | 6 | 140 | 0.0 | 0.0 | 0.00 | 0.00 | 0.79 | 47 | 1006.3 |
| 20260506192045 | 6 | 61 | 0.0 | 0.0 | 0.00 | 0.00 | 0.79 | 44 | 1006.4 |
| 20260506191607 | 6 | 61 | 0.0 | 0.0 | 0.00 | 0.00 | 0.79 | 44 | 1006.2 |
| 20260506191003 | 6 | 61 | 0.0 | 0.0 | 0.00 | 0.00 | 0.79 | 45 | 1006.4 |
| 20260506190549 | 6 | 61 | 0.0 | 0.0 | 0.00 | 0.00 | 0.79 | 45 | 1006.3 |
| 20260506190110 | 6 | 61 | 0.0 | 0.0 | 0.00 | 0.00 | 0.79 | 45 | 1006.3 |
| 20260506185508 | 6 | 61 | 0.0 | 0.0 | 0.00 | 0.00 | 0.79 | 45 | 1006.4 |
| 20260506185058 | 6 | 61 | 0.0 | 0.0 | 0.00 | 0.00 | 0.79 | 45 | 1006.4 |
| 20260506184017 | 5 | 61 | 0.0 | 0.0 | 0.00 | 0.00 | 0.79 | 45 | 1006.5 |
| 20260506183607 | 5 | 61 | 0.0 | 0.0 | 0.00 | 0.00 | 0.79 | 45 | 1006.5 |
| 20260506182548 | 5 | 61 | 0.0 | 0.0 | 0.00 | 0.00 | 0.79 | 45 | 1006.5 |
| 20260506181514 | 5 | 61 | 0.0 | 0.0 | 0.00 | 0.00 | 0.79 | 45 | 1006.6 |
| 20260506181058 | 5 | 61 | 0.0 | 0.0 | 0.00 | 0.00 | 0.79 | 44 | 1006.6 |
| 20260506180017 | 5 | 61 | 1.6 | 0.0 | 0.00 | 0.00 | 0.79 | 44 | 1006.7 |
| 20260506175604 | 5 | 21 | 0.0 | 0.0 | 0.00 | 0.00 | 0.79 | 44 | 1006.8 |
| 20260506175004 | 5 | 360 | 0.0 | 0.0 | 0.00 | 0.00 | 0.76 | 45 | 1006.9 |
| 20260506174554 | 5 | 5 | 0.0 | 0.0 | 0.00 | 0.00 | 0.76 | 45 | 1007.0 |
| 20260506173514 | 5 | 5 | 0.0 | 0.0 | 0.00 | 0.00 | 0.71 | 44 | 1007.0 |
| 20260506173113 | 5 | 5 | 0.0 | 0.0 | 0.00 | 0.00 | 0.71 | 43 | 1007.1 |
| 20260506172503 | 5 | 5 | 0.0 | 0.0 | 0.00 | 0.00 | 0.71 | 43 | 1007.1 |
| 20260506172052 | 5 | 360 | 1.6 | 0.0 | 0.00 | 0.00 | 0.71 | 43 | 1007.1 |
| 20260506171615 | 5 | 298 | 0.0 | 0.0 | 0.00 | 0.00 | 0.71 | 42 | 1007.2 |
| 20260506171040 | 5 | 270 | 0.0 | 0.0 | 0.00 | 0.00 | 0.71 | 42 | 1007.3 |
| 20260506170603 | 5 | 259 | 0.0 | 0.0 | 0.00 | 0.00 | 0.71 | 42 | 1007.3 |
| 20260506165553 | 5 | 259 | 1.6 | 0.0 | 0.00 | 0.00 | 0.71 | 42 | 1007.3 |
| 20260506165110 | 5 | 258 | 1.6 | 0.0 | 0.00 | 0.00 | 0.71 | 42 | 1007.3 |
| 20260506164544 | 5 | 252 | 0.0 | 0.0 | 0.00 | 0.00 | 0.71 | 42 | 1007.4 |
| 20260506164100 | 5 | 252 | 0.0 | 0.0 | 0.00 | 0.00 | 0.71 | 42 | 1007.5 |
| 20260506163616 | 5 | 252 | 1.6 | 0.0 | 0.00 | 0.00 | 0.71 | 42 | 1007.6 |
| 20260506163044 | 5 | 252 | 0.0 | 0.0 | 0.00 | 0.00 | 0.69 | 42 | 1007.6 |
| 20260506162559 | 5 | 252 | 0.0 | 0.0 | 0.00 | 0.00 | 0.66 | 41 | 1007.7 |
| 20260506161548 | 5 | 252 | 0.0 | 0.0 | 0.00 | 0.00 | 0.64 | 41 | 1007.8 |
| 20260506160508 | 5 | 252 | 0.0 | 0.0 | 0.00 | 0.00 | 0.61 | 42 | 1007.8 |
| 20260506160108 | 5 | 252 | 0.0 | 0.0 | 0.00 | 0.00 | 0.61 | 41 | 1007.9 |
| 20260506155016 | 5 | 252 | 0.0 | 0.0 | 0.00 | 0.00 | 0.58 | 41 | 1007.9 |
| 20260506154601 | 5 | 252 | 1.6 | 0.0 | 0.00 | 0.00 | 0.58 | 41 | 1008.0 |
| 20260506153546 | 5 | 256 | 1.6 | 0.0 | 0.00 | 0.00 | 0.51 | 41 | 1008.1 |
| 20260506152508 | 5 | 251 | 1.6 | 0.0 | 0.00 | 0.00 | 0.48 | 42 | 1008.1 |
| 20260506152058 | 6 | 251 | 3.2 | 0.0 | 0.00 | 0.00 | 0.46 | 41 | 1008.1 |
| 20260506151053 | 6 | 238 | 3.2 | 0.0 | 0.00 | 0.00 | 0.43 | 43 | 1008.4 |
| 20260506150607 | 6 | 259 | 3.2 | 0.0 | 0.00 | 0.00 | 0.41 | 43 | 1008.3 |
| 20260506150120 | 6 | 277 | 3.2 | 0.0 | 0.00 | 0.00 | 0.38 | 43 | 1008.2 |
| 20260506145548 | 6 | 272 | 3.2 | 0.0 | 0.00 | 0.00 | 0.36 | 44 | 1008.1 |
| 20260506145111 | 6 | 272 | 3.2 | 0.0 | 0.00 | 0.00 | 0.33 | 45 | 1008.1 |
| 20260506144514 | 6 | 276 | 1.6 | 0.0 | 0.00 | 0.00 | 0.33 | 45 | 1008.0 |
| 20260506144056 | 6 | 276 | 1.6 | 0.0 | 0.00 | 0.00 | 0.33 | 45 | 1007.9 |
| 20260506143048 | 6 | 282 | 1.6 | 0.0 | 0.00 | 0.00 | 0.30 | 46 | 1007.9 |
| 20260506142608 | 6 | 294 | 1.6 | 0.0 | 0.00 | 0.00 | 0.30 | 47 | 1008.0 |
| 20260506141547 | 6 | 240 | 0.0 | 0.0 | 0.00 | 0.00 | 0.28 | 48 | 1008.1 |
| 20260506141106 | 6 | 240 | 1.6 | 0.0 | 0.00 | 0.00 | 0.25 | 48 | 1008.0 |
| 20260506140504 | 6 | 273 | 1.6 | 0.0 | 0.00 | 0.00 | 0.25 | 49 | 1008.0 |
| 20260506140052 | 6 | 272 | 1.6 | 0.0 | 0.00 | 0.00 | 0.23 | 49 | 1007.9 |
| 20260506135011 | 6 | 291 | 1.6 | 0.0 | 0.00 | 0.00 | 0.23 | 50 | 1007.8 |
| 20260506134601 | 6 | 306 | 1.6 | 0.0 | 0.00 | 0.00 | 0.23 | 50 | 1007.8 |
| 20260506133558 | 6 | 281 | 3.2 | 0.0 | 0.00 | 0.00 | 0.20 | 50 | 1007.7 |
| 20260506133012 | 6 | 254 | 3.2 | 0.0 | 0.00 | 0.00 | 0.20 | 50 | 1007.8 |
| 20260506132611 | 6 | 285 | 3.2 | 0.0 | 0.00 | 0.00 | 0.18 | 50 | 1007.8 |
| 20260506132024 | 6 | 273 | 1.6 | 0.0 | 0.00 | 0.00 | 0.18 | 49 | 1007.9 |
| 20260506131624 | 6 | 313 | 1.6 | 0.0 | 0.00 | 0.00 | 0.18 | 49 | 1007.9 |
| 20260506131100 | 6 | 317 | 1.6 | 0.0 | 0.00 | 0.00 | 0.18 | 49 | 1007.9 |
| 20260506130514 | 6 | 288 | 1.6 | 0.0 | 0.00 | 0.00 | 0.15 | 50 | 1008.0 |
| 20260506130107 | 6 | 300 | 1.6 | 0.0 | 0.00 | 0.00 | 0.15 | 50 | 1007.9 |
| 20260506125516 | 6 | 277 | 3.2 | 0.0 | 0.00 | 0.00 | 0.15 | 51 | 1008.0 |
| 20260506125115 | 6 | 268 | 3.2 | 0.0 | 0.00 | 0.00 | 0.13 | 51 | 1007.9 |
| 20260506124526 | 6 | 284 | 1.6 | 0.0 | 0.00 | 0.00 | 0.13 | 52 | 1007.8 |
| 20260506124124 | 6 | 277 | 1.6 | 0.0 | 0.00 | 0.00 | 0.10 | 52 | 1007.8 |